Location: Bright Sky Observatory
(40.7821°N, 74.2425°W)
Time: 14:46:23
(UTC-04:00)

Amateur Radio Satellites - All Passes

Search period start: 25 July 2017 14:16
Search period end: 26 July 2017 14:16
Location: Bright Sky Observatory, 40.7821°N, 74.2425°W

Satellite Date Start Highest point End Downlink Frequencies (MHz)
Time Altitude Azimuth
UKube-1 25 Jul 14:16:49 14:21:01 48° 100° (E) 14:25:12 .
SPROUT 25 Jul 14:19:30 14:23:00 25° 292° (WNW) 14:26:28 437.525
Oscar 19 25 Jul 14:21:08 14:25:49 36° 263° (W) 14:30:33 437.125/150
BEESAT 3 25 Jul 14:28:42 14:31:02 15° 318° (NW) 14:33:24 437.485
AO-7 25 Jul 14:33:17 14:40:58 43° 61° (ENE) 14:48:41 .
ITAMSAT 1 25 Jul 14:34:46 14:38:53 24° 65° (ENE) 14:43:02 435.822/435.867
Gurwin Techsat 1B 25 Jul 14:50:00 14:54:43 32° 263° (W) 14:59:29 435.225
PCSat 25 Jul 15:05:24 15:10:41 54° 246° (WSW) 15:15:56 145.827
O/OREOS (USA 219) 25 Jul 15:07:23 15:11:35 41° 106° (ESE) 15:15:49 437.305
SO-50 25 Jul 15:08:20 15:12:49 55° 54° (NE) 15:17:18 436.795
BEESAT 2 25 Jul 15:09:06 15:11:37 16° 317° (NW) 15:14:10 435.950
VELOX 1 25 Jul 15:09:15 15:10:28 11° 299° (WNW) 15:11:42 145.980
DX 1 25 Jul 15:11:17 15:15:03 28° 292° (WNW) 15:18:48 434.975-435.025
50 SAT 25 Jul 15:18:01 15:18:51 11° 295° (WNW) 15:19:41 437.505
MOZHAYETS 4 25 Jul 15:19:39 15:22:41 17° 92° (E) 15:25:43
UKube-1 25 Jul 15:54:01 15:56:38 16° 296° (WNW) 15:59:15 .
BEESAT 25 Jul 15:58:22 16:03:04 59° 101° (E) 16:07:44 436.000
ITUPSAT 1 25 Jul 16:11:50 16:16:38 80° 104° (ESE) 16:21:22 437.325
ITAMSAT 1 25 Jul 16:13:07 16:18:05 43° 261° (W) 16:23:04 435.822/435.867
NO-84 25 Jul 16:14:31 16:16:20 13° 20° (NNE) 16:18:13 435.350 FM
RS-15 25 Jul 16:17:37 16:29:47 81° 119° (ESE) 16:42:11 29.354- 29.394
AO-7 25 Jul 16:25:45 16:33:38 45° 260° (W) 16:41:35 .
DOVE 4 25 Jul 16:39:30 16:43:20 23° 65° (ENE) 16:47:19 437.250
O/OREOS (USA 219) 25 Jul 16:47:53 16:51:10 20° 303° (WNW) 16:54:28 437.305
SO-50 25 Jul 16:50:00 16:52:50 16° 250° (WSW) 16:55:39 436.795
MOZHAYETS 4 25 Jul 16:55:43 17:00:03 44° 288° (WNW) 17:04:22
XW-2D 25 Jul 17:05:28 17:06:41 11° 65° (ENE) 17:07:55 145.860 - 145.880
HO-68 25 Jul 17:14:05 17:15:59 11° 49° (NE) 17:17:52 435.675
XW-2B 25 Jul 17:14:40 17:16:41 14° 66° (ENE) 17:18:42 145.730 - 145.750
XW-2C 25 Jul 17:30:59 17:33:55 22° 69° (ENE) 17:36:51 145.795 - 145.815
CUBESAT XI-V 25 Jul 17:31:09 17:35:51 85° 105° (ESE) 17:40:33 437.345
KKS-1 25 Jul 17:33:17 17:37:36 45° 99° (E) 17:41:52 437.445
NUDT-PHONESAT 25 Jul 17:37:06 17:39:45 19° 68° (ENE) 17:42:25 437.300
BEESAT 25 Jul 17:37:34 17:40:20 16° 298° (WNW) 17:43:07 436.000
NO-84 25 Jul 17:50:49 17:54:32 47° 38° (NE) 17:58:31 435.350 FM
KAITUO 1B 25 Jul 17:51:35 17:54:47 29° 71° (ENE) 17:58:01 145.475/437.950
ITUPSAT 1 25 Jul 17:52:01 17:53:46 12° 300° (WNW) 17:55:30 437.325
LilacSat-2 25 Jul 17:54:09 17:57:46 45° 74° (ENE) 18:01:23 437.200
STARS 25 Jul 18:01:47 18:05:55 38° 98° (E) 18:09:59 437.465
CUTE-I 25 Jul 18:03:33 18:08:46 55° 72° (ENE) 18:14:02 437.470
YUBILEINY 25 Jul 18:04:48 18:12:15 32° 84° (E) 18:19:43 435.215
XW-2F 25 Jul 18:07:35 18:11:15 60° 75° (ENE) 18:14:56 145.980 - 146.000
DOVE 4 25 Jul 18:16:04 18:20:40 42° 263° (W) 18:25:33 437.250
RS-15 25 Jul 18:32:35 18:43:42 38° 324° (NW) 18:54:55 29.354- 29.394
XW-2D 25 Jul 18:36:46 18:40:25 50° 260° (W) 18:44:05 145.860 - 145.880
XW-2B 25 Jul 18:47:01 18:50:32 38° 262° (W) 18:54:03 145.730 - 145.750
XW-2A 25 Jul 18:47:22 18:49:18 14° 68° (ENE) 18:51:12 145.665 - 145.685
HO-68 25 Jul 18:55:13 19:02:12 58° 68° (ENE) 19:09:12 435.675
AAUSAT CUBESAT 2 25 Jul 18:57:24 18:58:32 11° 63° (ENE) 18:59:39 437.432
XW-2C 25 Jul 19:04:58 19:08:00 23° 265° (W) 19:11:04 145.795 - 145.815
NUDT-PHONESAT 25 Jul 19:10:21 19:13:28 26° 264° (W) 19:16:37 437.300
KKS-1 25 Jul 19:10:49 19:13:46 18° 296° (WNW) 19:16:43 437.445
CUBESAT XI-V 25 Jul 19:11:23 19:12:30 11° 299° (WNW) 19:13:38 437.345
CUBEBUG 2 25 Jul 19:21:45 19:26:08 40° 72° (ENE) 19:30:26 437.445
KAITUO 1B 25 Jul 19:26:21 19:28:50 17° 266° (W) 19:31:19 145.475/437.950
NO-84 25 Jul 19:28:40 19:31:53 23° 232° (SW) 19:35:14 435.350 FM
LilacSat-2 25 Jul 19:30:57 19:32:17 12° 269° (W) 19:33:37 437.200
CUTE 1.7 + AOD 2 25 Jul 19:36:26 19:40:36 74° 258° (WSW) 19:44:49 437.475
AO-73 25 Jul 19:36:28 19:39:15 17° 66° (ENE) 19:42:00 145.935
STARS 25 Jul 19:38:46 19:41:58 20° 294° (WNW) 19:45:08 437.465
CUTE-I 25 Jul 19:45:27 19:49:08 19° 268° (W) 19:52:52 437.470
SEEDS 25 Jul 19:47:31 19:51:41 89° 270° (W) 19:55:52 437.485
YUBILEINY 25 Jul 19:59:57 20:08:33 56° 283° (WNW) 20:17:14 435.215
ISS 25 Jul 20:13:48 20:16:30 25° 134° (SE) 20:19:13 437.550
UWE-3 25 Jul 20:18:20 20:22:55 86° 256° (WSW) 20:27:25 435.000/436.395/437.385
XW-2A 25 Jul 20:18:46 20:21:46 29° 263° (W) 20:24:46 145.665 - 145.685
Tancredo 1 25 Jul 20:27:21 20:30:17 77° 324° (NW) 20:33:14 437.200
AAUSAT CUBESAT 2 25 Jul 20:29:21 20:33:25 65° 259° (W) 20:37:31 437.432
ZACube-1 25 Jul 20:30:49 20:35:15 72° 75° (ENE) 20:39:36 437.345
STRAND 1 25 Jul 20:33:28 20:38:37 89° 116° (ESE) 20:43:42 437.568
AO-85 25 Jul 20:40:54 20:44:16 23° 48° (NE) 20:47:49 145.980
HO-68 25 Jul 20:44:25 20:50:16 27° 266° (W) 20:56:09 435.675
RS-15 25 Jul 20:52:19 21:01:17 22° 358° (N) 21:10:05 29.354- 29.394
nSIGHT-1 25 Jul 20:54:47 20:57:59 70° 141° (SE) 21:01:12 .
Oscar 11 25 Jul 20:55:55 21:00:13 89° 253° (WSW) 21:04:33 .
CUBEBUG 2 25 Jul 20:59:23 21:02:51 20° 267° (W) 21:06:17 437.445
BEESAT 3 25 Jul 21:06:12 21:09:54 34° 51° (NE) 21:13:31 437.485
AO-73 25 Jul 21:10:52 21:15:08 45° 261° (W) 21:19:19 145.935
DELFI C3 25 Jul 21:25:57 21:29:43 46° 73° (ENE) 21:33:30 145.870
EO-88 25 Jul 21:43:14 21:46:42 44° 74° (ENE) 21:50:11 145.990 - 145.960
BEESAT 2 25 Jul 21:47:32 21:51:14 32° 51° (NE) 21:54:53 435.950
ISS 25 Jul 21:49:47 21:52:51 38° 331° (NNW) 21:55:56 437.550
FO-29 25 Jul 22:01:04 22:07:46 44° 96° (E) 22:13:40 435.910
Tancredo 1 25 Jul 22:04:13 22:06:05 15° 343° (NNW) 22:07:58 437.200
YUBILEINY 25 Jul 22:07:23 22:07:41 10° 306° (NW) 22:08:00 435.215
ESTCUBE 1 25 Jul 22:11:56 22:12:59 11° 61° (ENE) 22:14:01 437.505/2401.250
STRAND 1 25 Jul 22:15:10 22:17:00 12° 301° (WNW) 22:18:50 437.568
TIGRISAT 25 Jul 22:20:12 22:23:53 27° 95° (E) 22:27:29 435.000
AO-85 25 Jul 22:20:47 22:24:45 39° 244° (WSW) 22:29:00 145.980
nSIGHT-1 25 Jul 22:32:08 22:34:40 21° 339° (NNW) 22:37:12 .
BEESAT 3 25 Jul 22:44:15 22:47:15 21° 248° (WSW) 22:50:12 437.485
PRISM 25 Jul 22:55:49 22:59:58 61° 101° (E) 23:04:05 437.425
DELFI C3 25 Jul 23:03:00 23:04:44 13° 269° (W) 23:06:28 145.870
RS-15 25 Jul 23:08:12 23:19:03 34° 33° (NNE) 23:29:25 29.354- 29.394
UNISAT 6 25 Jul 23:12:17 23:16:35 70° 286° (WNW) 23:20:50 437.425
LO-87 25 Jul 23:18:12 23:21:51 90° 245° (WSW) 23:25:30 145.935 - 145.965
EO-88 25 Jul 23:19:38 23:20:36 11° 269° (W) 23:21:35 145.990 - 145.960
BEESAT 2 25 Jul 23:25:35 23:28:48 23° 248° (WSW) 23:31:57 435.950
ISS 25 Jul 23:28:14 23:30:02 14° 350° (N) 23:31:49 437.550
SPROUT 25 Jul 23:36:49 23:40:04 21° 67° (ENE) 23:43:18 437.525
QB50P2 25 Jul 23:41:04 23:43:06 13° 91° (E) 23:45:07 145.880/145.840
Tancredo 1 25 Jul 23:41:51 23:42:26 10° 3° (N) 23:43:03 437.200
ESTCUBE 1 25 Jul 23:44:38 23:49:06 79° 257° (WSW) 23:53:36 437.505/2401.250
FO-29 25 Jul 23:46:19 23:52:34 34° 297° (WNW) 23:58:11 435.910
M-CUBED/EXP-1 PRIME 25 Jul 23:47:37 23:52:16 84° 106° (ESE) 23:56:56 437.505
NANOSAT C BR1 25 Jul 23:52:05 23:54:23 14° 92° (E) 23:56:40 145.865
AIST 2D 25 Jul 23:52:14 23:55:28 36° 98° (E) 23:58:43 435.315
EO-79 25 Jul 23:52:18 23:54:56 16° 92° (E) 23:57:34 145.935-145.965
TIGRISAT 25 Jul 23:56:56 00:00:28 25° 292° (WNW) 00:03:58 435.000
nSIGHT-1 26 Jul 00:10:37 00:12:00 12° 359° (N) 00:13:23 .
50 SAT 26 Jul 00:15:15 00:17:21 16° 67° (ENE) 00:19:27 437.505
VELOX 1 26 Jul 00:26:45 00:31:07 65° 74° (ENE) 00:35:32 145.980
DX 1 26 Jul 00:30:40 00:34:03 22° 66° (ENE) 00:37:26 434.975-435.025
PRISM 26 Jul 00:33:05 00:34:42 12° 297° (WNW) 00:36:19 437.425
DUCHIFAT 1 26 Jul 00:58:04 01:02:16 74° 103° (ESE) 01:06:24 145.980
POLYITAN 1 26 Jul 01:01:52 01:06:04 79° 285° (WNW) 01:10:15 437.675
ISS 26 Jul 01:05:41 01:07:33 14° 11° (N) 01:09:24 437.550
UKube-1 26 Jul 01:10:47 01:14:47 39° 71° (ENE) 01:18:49 .
SPROUT 26 Jul 01:11:50 01:15:44 33° 263° (W) 01:19:39 437.525
QB50P2 26 Jul 01:15:05 01:19:10 50° 287° (WNW) 01:23:13 145.880/145.840
Tancredo 1 26 Jul 01:16:24 01:18:42 20° 23° (NNE) 01:21:01 437.200
O/OREOS (USA 219) 26 Jul 01:17:15 01:21:45 79° 67° (ENE) 01:26:16 437.305
RS-15 26 Jul 01:21:03 01:33:13 87° 240° (WSW) 01:44:41 29.354- 29.394
BUGSAT 1 26 Jul 01:23:39 01:27:29 38° 98° (E) 01:31:14 437.445
M-CUBED/EXP-1 PRIME 26 Jul 01:24:08 01:26:01 12° 304° (WNW) 01:27:54 437.505
NANOSAT C BR1 26 Jul 01:26:19 01:30:20 45° 287° (WNW) 01:34:18 145.865
AIST 2D 26 Jul 01:26:43 01:28:20 13° 293° (WNW) 01:29:58 435.315
EO-79 26 Jul 01:26:55 01:30:52 40° 289° (WNW) 01:34:47 145.935-145.965
Gurwin Techsat 1B 26 Jul 01:28:27 01:30:26 12° 89° (E) 01:32:25 435.225
ITUPSAT 1 26 Jul 01:44:49 01:45:45 11° 59° (ENE) 01:46:40 437.325
50 SAT 26 Jul 01:46:54 01:49:51 27° 263° (W) 01:52:49 437.505
nSIGHT-1 26 Jul 01:46:55 01:49:22 20° 20° (NNE) 01:51:49 .
DX 1 26 Jul 02:06:06 02:10:02 33° 263° (W) 02:14:00 434.975-435.025
VELOX 1 26 Jul 02:06:36 02:07:59 11° 270° (W) 02:09:22 145.980
MOZHAYETS 4 26 Jul 02:21:36 02:24:34 17° 65° (ENE) 02:27:32
Oscar 19 26 Jul 02:32:12 02:37:24 79° 103° (ESE) 02:42:35 437.125/150
DUCHIFAT 1 26 Jul 02:37:04 02:37:17 10° 299° (WNW) 02:37:30 145.980
AO-7 26 Jul 02:39:51 02:40:59 10° 86° (E) 02:42:07 .
ISS 26 Jul 02:41:35 02:44:42 41° 30° (NNE) 02:47:48 437.550
UKube-1 26 Jul 02:47:59 02:50:57 18° 266° (W) 02:53:55 .
Tancredo 1 26 Jul 02:51:24 02:54:18 54° 220° (SW) 02:57:10 437.200
BUGSAT 1 26 Jul 02:59:50 03:02:31 17° 295° (WNW) 03:05:11 437.445
BEESAT 26 Jul 03:04:11 03:08:55 67° 73° (ENE) 03:13:40 436.000
Gurwin Techsat 1B 26 Jul 03:05:38 03:10:58 81° 286° (WNW) 03:16:17 435.225
ITUPSAT 1 26 Jul 03:18:00 03:22:48 89° 68° (ENE) 03:27:37 437.325
nSIGHT-1 26 Jul 03:22:52 03:26:05 80° 219° (SW) 03:29:18 .
RS-15 26 Jul 03:35:44 03:43:48 22° 261° (W) 03:51:38 29.354- 29.394
MOZHAYETS 4 26 Jul 03:56:55 04:01:20 48° 261° (W) 04:05:46
PCSat 26 Jul 04:04:57 04:08:49 20° 106° (ESE) 04:12:42 145.827
Oscar 19 26 Jul 04:13:32 04:16:02 14° 300° (WNW) 04:18:31 437.125/150
YUBILEINY 26 Jul 04:15:56 04:20:31 15° 59° (ENE) 04:25:03 435.215
ISS 26 Jul 04:18:23 04:21:00 22° 226° (SW) 04:23:38 437.550
ITAMSAT 1 26 Jul 04:25:49 04:31:02 68° 103° (ESE) 04:36:10 435.822/435.867
AO-7 26 Jul 04:26:56 04:35:15 65° 104° (ESE) 04:43:30 .
KKS-1 26 Jul 04:30:48 04:34:59 41° 71° (ENE) 04:39:13 437.445
CUBESAT XI-V 26 Jul 04:33:51 04:38:26 79° 75° (ENE) 04:43:03 437.345
BEESAT 26 Jul 04:45:04 04:47:07 13° 270° (W) 04:49:10 436.000
Gurwin Techsat 1B 26 Jul 04:48:36 04:50:02 11° 303° (WNW) 04:51:28 435.225
STARS 26 Jul 04:57:55 05:01:53 33° 70° (ENE) 05:05:53 437.465
SO-50 26 Jul 05:23:38 05:26:42 18° 111° (ESE) 05:29:46 436.795
PCSat 26 Jul 05:46:26 05:51:45 56° 303° (WNW) 05:57:06 145.827
ITAMSAT 1 26 Jul 06:06:50 06:09:54 16° 299° (WNW) 06:12:58 435.822/435.867
KKS-1 26 Jul 06:08:36 06:11:42 18° 267° (W) 06:14:49 437.445
YUBILEINY 26 Jul 06:10:13 06:19:00 75° 81° (E) 06:27:42 435.215
XW-2D 26 Jul 06:10:19 06:12:41 16° 93° (E) 06:15:02 145.860 - 145.880
STRAND 1 26 Jul 06:12:28 06:15:29 16° 61° (ENE) 06:18:32 437.568
DOVE 4 26 Jul 06:14:50 06:20:03 58° 100° (E) 06:25:01 437.250
XW-2B 26 Jul 06:20:01 06:22:50 20° 94° (E) 06:25:39 145.730 - 145.750
AO-7 26 Jul 06:20:29 06:27:26 31° 303° (WNW) 06:34:22 .
CUTE-I 26 Jul 06:21:33 06:25:40 22° 94° (E) 06:29:45 437.470
STARS 26 Jul 06:34:48 06:38:16 22° 265° (W) 06:41:44 437.465
XW-2C 26 Jul 06:36:57 06:40:22 32° 97° (E) 06:43:47 145.795 - 145.815
NUDT-PHONESAT 26 Jul 06:40:29 06:43:36 26° 96° (E) 06:46:42 437.300
KAITUO 1B 26 Jul 06:56:11 06:59:44 42° 98° (E) 07:03:18 145.475/437.950
LilacSat-2 26 Jul 07:01:20 07:05:09 73° 102° (ESE) 07:08:56 437.200
SO-50 26 Jul 07:02:23 07:06:47 49° 307° (NW) 07:11:11 436.795
XW-2F 26 Jul 07:13:39 07:17:24 87° 286° (WNW) 07:21:10 145.980 - 146.000
CUTE 1.7 + AOD 2 26 Jul 07:22:12 07:25:15 19° 93° (E) 07:28:17 437.475
SEEDS 26 Jul 07:32:38 07:35:09 15° 92° (E) 07:37:41 437.485
PCSat 26 Jul 07:34:52 07:36:22 11° 324° (NW) 07:37:54 145.827
XW-2A 26 Jul 07:41:20 07:43:15 14° 93° (E) 07:45:10 145.665 - 145.685
XW-2D 26 Jul 07:43:33 07:46:56 33° 288° (WNW) 07:50:20 145.860 - 145.880
STRAND 1 26 Jul 07:48:59 07:54:06 67° 258° (WSW) 07:59:14 437.568
DOVE 4 26 Jul 07:53:39 07:57:10 18° 297° (WNW) 08:00:37 437.250
XW-2B 26 Jul 07:53:50 07:57:00 26° 289° (WNW) 08:00:10 145.730 - 145.750
CUTE-I 26 Jul 08:00:48 08:05:55 46° 290° (WNW) 08:10:59 437.470
YUBILEINY 26 Jul 08:08:34 08:14:49 22° 280° (W) 08:21:03 435.215
UWE-3 26 Jul 08:09:15 08:12:06 18° 93° (E) 08:14:56 435.000/436.395/437.385
HO-68 26 Jul 08:10:30 08:17:36 62° 102° (ESE) 08:24:39 435.675
XW-2C 26 Jul 08:11:51 08:14:18 17° 293° (WNW) 08:16:44 145.795 - 145.815
AAUSAT CUBESAT 2 26 Jul 08:12:14 08:15:17 19° 93° (E) 08:18:20 437.432
FO-29 26 Jul 08:12:17 08:18:07 24° 59° (ENE) 08:24:03 435.910
NUDT-PHONESAT 26 Jul 08:14:38 08:17:19 19° 291° (WNW) 08:20:00 437.300
ZACube-1 26 Jul 08:21:05 08:22:59 13° 91° (E) 08:24:52 437.345
KAITUO 1B 26 Jul 08:31:37 08:33:21 13° 294° (WNW) 08:35:05 145.475/437.950
UNISAT 6 26 Jul 08:37:48 08:38:38 10° 61° (ENE) 08:39:28 437.425
Oscar 11 26 Jul 08:44:20 08:47:10 17° 92° (E) 08:49:59 .
CUBEBUG 2 26 Jul 08:49:05 08:53:22 88° 281° (W) 08:57:31 437.445
CUTE 1.7 + AOD 2 26 Jul 08:57:17 09:01:10 35° 289° (WNW) 09:05:03 437.475
AO-73 26 Jul 08:59:04 09:02:46 31° 97° (E) 09:06:26 145.935
SEEDS 26 Jul 09:07:02 09:11:02 43° 287° (WNW) 09:15:02 437.485
XW-2A 26 Jul 09:13:10 09:16:02 27° 289° (WNW) 09:18:52 145.665 - 145.685
TIGRISAT 26 Jul 09:18:21 09:22:09 26° 68° (ENE) 09:25:54 435.000
PRISM 26 Jul 09:44:34 09:48:24 40° 71° (ENE) 09:52:17 437.425
UWE-3 26 Jul 09:44:52 09:48:41 35° 289° (WNW) 09:52:27 435.000/436.395/437.385
AAUSAT CUBESAT 2 26 Jul 09:47:03 09:50:49 33° 289° (WNW) 09:54:34 437.432
FO-29 26 Jul 09:54:38 10:02:16 79° 257° (WSW) 10:10:12 435.910
ZACube-1 26 Jul 09:55:33 09:59:33 49° 287° (WNW) 10:03:32 437.345
HO-68 26 Jul 09:59:06 10:04:48 27° 301° (WNW) 10:10:30 435.675
UNISAT 6 26 Jul 10:10:00 10:14:40 85° 258° (WSW) 10:19:15 437.425
Oscar 11 26 Jul 10:19:24 10:23:28 41° 288° (WNW) 10:27:30 .
AIST 2D 26 Jul 10:27:35 10:29:20 13° 67° (ENE) 10:31:06 435.315
M-CUBED/EXP-1 PRIME 26 Jul 10:33:21 10:36:58 84° 249° (WSW) 10:40:57 437.505
QB50P2 26 Jul 10:34:46 10:35:46 11° 62° (ENE) 10:36:47 145.880/145.840
AO-73 26 Jul 10:35:44 10:38:48 20° 293° (WNW) 10:41:52 145.935
DELFI C3 26 Jul 10:37:23 10:41:24 81° 100° (E) 10:45:25 145.870
NO-84 26 Jul 10:44:54 10:47:47 50° 133° (SE) 10:50:53 435.350 FM
NANOSAT C BR1 26 Jul 10:45:03 10:46:27 11° 62° (ENE) 10:47:52 145.865
EO-79 26 Jul 10:45:17 10:47:15 13° 63° (ENE) 10:49:13 145.935-145.965
EO-88 26 Jul 10:45:25 10:49:02 62° 101° (E) 10:52:38 145.990 - 145.960
TIGRISAT 26 Jul 10:54:32 10:58:41 31° 263° (W) 11:02:46 435.000
PRISM 26 Jul 11:21:22 11:23:51 16° 267° (W) 11:26:21 437.425
ESTCUBE 1 26 Jul 11:37:52 11:41:23 22° 94° (E) 11:44:54 437.505/2401.250
FO-29 26 Jul 11:44:23 11:48:21 15° 275° (W) 11:52:25 435.910
DUCHIFAT 1 26 Jul 11:49:06 11:53:12 50° 73° (ENE) 11:57:19 145.980
POLYITAN 1 26 Jul 11:53:33 11:57:48 73° 75° (ENE) 12:02:03 437.675
AIST 2D 26 Jul 11:59:03 12:02:14 34° 262° (W) 12:05:26 435.315
QB50P2 26 Jul 12:06:41 12:10:57 73° 259° (W) 12:15:13 145.880/145.840
Oscar 19 26 Jul 12:12:32 12:15:13 14° 60° (ENE) 12:17:54 437.125/150
BUGSAT 1 26 Jul 12:12:55 12:16:29 27° 69° (ENE) 12:20:03 437.445
NANOSAT C BR1 26 Jul 12:17:22 12:21:35 67° 258° (WSW) 12:25:50 145.865
EO-79 26 Jul 12:18:18 12:22:30 58° 259° (W) 12:26:43 145.935-145.965
LO-87 26 Jul 12:18:40 12:22:15 68° 284° (WNW) 12:25:47 145.935 - 145.965
VELOX 1 26 Jul 12:18:52 12:20:45 12° 91° (E) 12:22:38 145.980
NO-84 26 Jul 12:23:10 12:25:28 19° 333° (NNW) 12:27:55 435.350 FM
BEESAT 3 26 Jul 12:32:14 12:36:10 65° 119° (ESE) 12:40:10 437.485
AO-85 26 Jul 12:34:52 12:38:51 68° 120° (ESE) 12:42:45 145.980
Gurwin Techsat 1B 26 Jul 12:48:25 12:52:16 21° 63° (ENE) 12:56:09 435.225
PCSat 26 Jul 12:52:03 12:55:52 19° 44° (NE) 12:59:40 145.827
SPROUT 26 Jul 12:57:17 13:01:18 39° 98° (E) 13:05:16 437.525
50 SAT 26 Jul 13:09:29 13:11:35 15° 94° (E) 13:13:41 437.505
ESTCUBE 1 26 Jul 13:14:08 13:18:14 35° 290° (WNW) 13:22:20 437.505/2401.250
BEESAT 2 26 Jul 13:15:19 13:19:15 62° 119° (ESE) 13:23:15 435.950
DUCHIFAT 1 26 Jul 13:27:03 13:29:08 13° 269° (W) 13:31:13 145.980
AO-7 26 Jul 13:36:27 13:42:01 20° 50° (NE) 13:47:34 .
RS-15 26 Jul 13:39:04 13:43:59 13° 94° (E) 13:48:54 29.354- 29.394
BUGSAT 1 26 Jul 13:48:15 13:51:45 25° 264° (W) 13:55:17 437.445
Oscar 19 26 Jul 13:48:48 13:53:53 74° 257° (WSW) 13:59:01 437.125/150
VELOX 1 26 Jul 13:53:09 13:57:34 60° 286° (WNW) 14:01:55 145.980
DX 1 26 Jul 13:53:58 13:58:07 40° 99° (E) 14:02:15 434.975-435.025
SO-50 26 Jul 13:54:02 13:57:16 19° 43° (NE) 14:00:31 436.795
ITAMSAT 1 26 Jul 14:07:23 14:09:54 14° 59° (ENE) 14:12:25 435.822/435.867
